KG5APU Weather Reports


time (UTC)temp
C
wind
direction
speed
KPH
gust
KPH
rain 1hr
cm
rain 24hr
cm
rain mn
cm
humidity
%
barometer
mb
20260509053519 20 159 0.0 0.0 0.00 0.00 0.00 92 1011.4
20260509052519 20 171 0.0 0.0 0.00 0.00 0.00 92 1011.4
20260509051515 20 177 1.6 1.6 0.00 0.00 0.00 92 1011.8
20260509050514 20 112 0.0 0.0 0.00 0.00 0.00 92 1012.1
20260509045514 20 122 1.6 3.2 0.00 0.05 0.05 91 1011.4
20260509044515 20 168 0.0 0.0 0.00 0.05 0.05 91 1010.6
20260509043514 20 174 0.0 1.6 0.00 0.05 0.05 90 1010.6
20260509042512 21 147 3.2 4.8 0.00 0.05 0.05 90 1010.2
20260509041511 21 195 8.0 12.9 0.30 0.05 0.05 88 1009.8
20260509040507 21 163 3.2 4.8 0.00 0.00 0.00 84 1010.7
20260509035506 21 156 0.0 0.0 0.00 0.00 0.00 84 1011.4
20260509034501 21 150 0.0 0.0 0.00 0.00 0.00 84 1011.6
20260509033500 21 149 0.0 0.0 0.00 0.00 0.00 85 1011.6
20260509032500 21 135 0.0 0.0 0.00 0.00 0.00 84 1011.3
20260509031500 21 160 0.0 0.0 0.00 0.00 0.00 84 1010.8
20260509030456 21 158 0.0 0.0 0.00 0.00 0.00 83 1010.9
20260509025454 22 154 0.0 0.0 0.00 0.00 0.00 83 1010.9
20260509024452 22 155 1.6 1.6 0.00 0.00 0.00 83 1010.6
20260509023452 21 158 0.0 0.0 0.00 0.00 0.00 82 1010.1
20260509022451 21 157 1.6 1.6 0.00 0.00 0.00 82 1009.9
20260509021451 21 161 1.6 1.6 0.00 0.00 0.00 82 1009.9
20260509020447 22 159 0.0 0.0 0.00 0.00 0.00 81 1009.9
20260509015442 22 159 0.0 0.0 0.00 0.00 0.00 80 1010.0
20260509014441 22 162 0.0 0.0 0.00 0.00 0.00 79 1009.9
20260509013440 22 164 0.0 0.0 0.00 0.00 0.00 79 1009.5
20260509012438 22 162 0.0 0.0 0.00 0.00 0.00 79 1009.6
20260509011438 22 134 4.8 8.0 0.00 0.00 0.00 78 1009.5
20260509010433 22 168 0.0 0.0 0.00 0.00 0.00 78 1009.3
20260509005428 22 171 0.0 1.6 0.00 0.00 0.00 76 1009.3
20260509004425 22 172 0.0 0.0 0.00 0.00 0.00 75 1009.1
20260509003421 23 175 0.0 1.6 0.00 0.00 0.00 74 1008.9
20260509002415 23 211 1.6 3.2 0.00 0.00 0.00 74 1008.9
20260509001414 23 167 3.2 3.2 0.00 0.00 0.00 73 1008.9
20260509000410 23 169 1.6 3.2 0.00 0.00 0.00 73 1009.1
20260508235409 23 134 4.8 4.8 0.00 0.00 0.00 71 1009.1
20260508234408 23 170 1.6 3.2 0.00 0.00 0.00 71 1009.4
20260508233405 23 203 0.0 1.6 0.00 0.00 0.00 71 1009.5
20260508232404 24 157 1.6 1.6 0.00 0.00 0.00 71 1009.6
20260508231358 23 224 3.2 3.2 0.00 0.00 0.00 72 1009.5
20260508230358 23 159 4.8 8.0 0.00 0.00 0.00 71 1009.6
20260508225357 24 164 8.0 9.7 0.00 0.00 0.00 70 1009.7
20260508224353 25 167 1.6 3.2 0.00 0.00 0.00 70 1009.6
20260508223347 25 128 4.8 4.8 0.00 0.00 0.00 69 1009.5
20260508222342 25 195 4.8 8.0 0.00 0.00 0.00 68 1009.5
20260508221339 25 208 6.4 9.7 0.00 0.00 0.00 66 1009.3
20260508220338 26 210 6.4 9.7 0.00 0.00 0.00 66 1009.3
20260508215338 25 173 3.2 4.8 0.00 0.00 0.00 66 1009.0
20260508214332 25 158 4.8 4.8 0.00 0.00 0.00 65 1008.9
20260508213331 25 173 9.7 12.9 0.00 0.00 0.00 64 1009.3
20260508212329 25 175 8.0 11.3 0.00 0.00 0.00 66 1009.7
20260508211326 23 200 6.4 9.7 0.00 0.00 0.00 69 1010.1
20260508210321 23 216 3.2 4.8 0.00 0.00 0.00 71 1010.9
20260508205320 23 211 6.4 9.7 0.00 0.00 0.00 71 1010.6
20260508204319 23 189 6.4 9.7 0.00 0.00 0.00 68 1011.2
20260508203317 24 207 11.3 12.9 0.00 0.00 0.00 67 1011.2
20260508202316 25 176 8.0 9.7 0.00 0.00 0.00 66 1011.3
20260508201316 25 166 4.8 8.0 0.00 0.00 0.00 64 1011.1
20260508200315 26 211 8.0 11.3 0.00 0.00 0.00 62 1011.3
20260508195313 25 166 4.8 9.7 0.00 0.00 0.00 63 1011.3
20260508194313 25 170 3.2 4.8 0.00 0.00 0.00 65 1011.5
20260508193312 25 202 4.8 9.7 0.00 0.00 0.00 65 1011.4
20260508192312 25 196 8.0 11.3 0.00 0.00 0.00 63 1011.5
20260508191306 26 172 6.4 8.0 0.00 0.00 0.00 63 1012.0
20260508190305 26 201 3.2 3.2 0.00 0.00 0.00 62 1011.8
20260508185259 26 180 1.6 3.2 0.00 0.00 0.00 62 1011.9
20260508184259 25 159 6.4 8.0 0.00 0.00 0.00 63 1012.1
20260508183258 25 164 4.8 8.0 0.00 0.00 0.00 63 1012.2
20260508182257 24 146 3.2 4.8 0.00 0.00 0.00 65 1012.3
20260508181256 25 124 0.0 1.6 0.00 0.00 0.00 64 1012.6
20260508180256 24 196 1.6 1.6 0.00 0.00 0.00 62 1012.7
20260508175254 23 148 3.2 3.2 0.00 0.00 0.00 64 1013.0
20260508174250 24 164 6.4 8.0 0.00 0.00 0.00 62 1013.1
20260508173248 23 174 1.6 3.2 0.00 0.00 0.00 63 1013.2
20260508172248 22 185 4.8 8.0 0.00 0.00 0.00 68 1013.6
20260508171246 22 160 4.8 8.0 0.00 0.00 0.00 66 1013.6
20260508170241 22 145 3.2 4.8 0.00 0.00 0.00 66 1013.7
20260508165241 22 126 1.6 4.8 0.00 0.00 0.00 65 1014.2
20260508164239 22 194 4.8 4.8 0.00 0.00 0.00 66 1014.2
20260508163235 21 156 3.2 4.8 0.00 0.00 0.00 68 1014.7
20260508162234 21 165 4.8 9.7 0.00 0.00 0.00 68 1014.7
20260508161234 21 194 4.8 8.0 0.00 0.00 0.00 68 1014.8
20260508160230 21 178 6.4 8.0 0.00 0.00 0.00 69 1014.8
20260508155229 21 214 4.8 8.0 0.00 0.00 0.00 70 1015.2
20260508154229 21 224 11.3 16.1 0.00 0.00 0.00 69 1014.7
20260508153229 21 173 3.2 4.8 0.00 0.00 0.00 71 1015.0
20260508152226 21 167 1.6 3.2 0.00 0.00 0.00 72 1015.3
20260508151225 21 142 3.2 4.8 0.00 0.00 0.00 69 1015.1
20260508150225 21 145 4.8 4.8 0.00 0.00 0.00 72 1015.0
20260508145222 20 136 1.6 1.6 0.00 0.00 0.00 77 1014.9
20260508144218 20 149 3.2 3.2 0.00 0.00 0.00 72 1015.2
20260508143218 20 127 4.8 8.0 0.00 0.00 0.00 74 1015.4
20260508142217 19 155 1.6 1.6 0.00 0.00 0.00 77 1015.5
20260508141217 18 205 3.2 4.8 0.00 0.00 0.00 77 1015.2
20260508140215 18 153 1.6 3.2 0.00 0.00 0.00 80 1015.7
20260508135213 18 152 1.6 3.2 0.00 0.00 0.00 81 1015.3
20260508134213 17 158 1.6 3.2 0.00 0.00 0.00 82 1015.4
20260508133207 17 157 0.0 0.0 0.00 0.00 0.00 84 1015.5
20260508132207 17 155 1.6 3.2 0.00 0.00 0.00 85 1015.3
20260508131205 17 144 3.2 4.8 0.00 0.00 0.00 84 1015.9
20260508130205 17 147 0.0 1.6 0.00 0.00 0.00 85 1015.6
20260508125203 16 149 3.2 3.2 0.00 0.00 0.00 85 1015.9
20260508124158 16 166 1.6 1.6 0.00 0.00 0.00 87 1016.0
20260508123154 16 167 1.6 1.6 0.00 0.00 0.00 87 1015.7
20260508122153 16 164 1.6 1.6 0.00 0.00 0.00 88 1015.6
20260508121149 16 161 0.0 0.0 0.00 0.00 0.00 89 1015.8
20260508120144 16 182 3.2 3.2 0.00 0.00 0.00 88 1015.6
20260508115144 16 170 0.0 0.0 0.00 0.00 0.00 88 1015.9
20260508114143 16 165 3.2 3.2 0.00 0.00 0.00 88 1015.8
20260508113138 16 160 0.0 0.0 0.00 0.00 0.00 90 1015.5
20260508112137 16 158 0.0 0.0 0.00 0.00 0.00 90 1015.2
20260508111137 16 174 0.0 0.0 0.00 0.00 0.00 88 1016.1
20260508110136 16 156 0.0 0.0 0.00 0.00 0.00 88 1016.0
20260508105134 16 280 9.7 11.3 0.00 0.00 0.00 88 1016.9
20260508104134 16 156 0.0 0.0 0.00 0.00 0.00 90 1015.3
20260508103135 16 199 3.2 3.2 0.00 0.00 0.00 90 1015.1
20260508102130 16 167 1.6 3.2 0.00 0.00 0.00 89 1014.7
20260508101129 17 167 3.2 3.2 0.00 0.00 0.00 89 1014.3
20260508100125 16 162 1.6 3.2 0.00 0.00 0.00 88 1014.5
20260508095124 16 165 0.0 0.0 0.00 0.00 0.00 88 1014.6
20260508094123 16 192 0.0 0.0 0.00 0.00 0.00 89 1015.1
20260508093118 16 167 0.0 0.0 0.00 0.00 0.00 89 1014.8
20260508092114 16 164 0.0 0.0 0.00 0.00 0.00 89 1014.9
20260508091113 16 163 0.0 0.0 0.00 0.00 0.00 88 1015.2
20260508090108 16 213 4.8 8.0 0.00 0.00 0.00 88 1015.1
20260508085108 17 160 1.6 1.6 0.00 0.00 0.00 88 1014.7
20260508084108 17 180 3.2 4.8 0.00 0.00 0.00 87 1015.3
20260508083107 17 167 0.0 0.0 0.00 0.00 0.00 87 1015.5
20260508082106 16 157 0.0 0.0 0.00 0.00 0.00 87 1015.5
20260508081105 16 175 0.0 0.0 0.00 0.00 0.00 87 1016.3
20260508080101 16 184 0.0 0.0 0.00 0.00 0.00 87 1016.3
20260508075100 16 173 0.0 0.0 0.00 0.00 0.00 87 1016.2
20260508074100 16 160 0.0 0.0 0.00 0.00 0.00 87 1015.8
20260508073055 15 160 0.0 0.0 0.00 0.00 0.00 87 1015.9
20260508072054 16 160 0.0 0.0 0.00 0.00 0.00 87 1016.1
20260508071050 16 154 0.0 0.0 0.00 0.00 0.00 86 1016.0
20260508070045 16 159 0.0 0.0 0.00 0.00 0.00 85 1016.1
20260508065041 16 168 0.0 0.0 0.00 0.00 0.00 85 1016.4
20260508064036 16 162 0.0 0.0 0.00 0.00 0.00 86 1016.3
20260508063031 16 168 0.0 0.0 0.00 0.00 0.00 87 1017.0
20260508062030 15 171 0.0 0.0 0.00 0.00 0.00 88 1016.4
20260508061031 15 167 0.0 0.0 0.00 0.00 0.00 89 1016.7
20260508060025 15 163 0.0 0.0 0.00 0.00 0.00 88 1016.6
20260508055023 15 163 0.0 0.0 0.00 0.00 0.00 88 1016.4
20260508054023 15 163 0.0 0.0 0.00 0.00 0.00 87 1016.8